AKDT,Max TemperatureF,Mean TemperatureF,Min TemperatureF,Max Dew PointF,MeanDew PointF,Min DewpointF,Max Humidity, Mean Humidity, Min Humidity, Max Sea Level PressureIn, Mean Sea Level PressureIn, Min Sea Level PressureIn, Max VisibilityMiles, Mean VisibilityMiles, Min VisibilityMiles, Max Wind SpeedMPH, Mean Wind SpeedMPH, Max Gust SpeedMPH,PrecipitationIn, CloudCover, Events, WindDirDegrees
2013-6-1,46,39,32,38,32,29,0,0,0,30.29,30.23,30.01,10,7,0,16,12,20,T,7,Fog-Snow,214
2013-6-2,44,39,34,35,32,30,0,0,0,29.98,29.85,29.81,10,10,10,21,13,26,T,5,,240
2013-6-3,34,29,24,32,24,15,0,0,0,30.08,29.99,29.90,10,6,1,22,15,26,0.08,8,Rain-Snow,23
2013-6-4,26,24,22,18,16,13,0,0,0,30.05,29.95,29.88,10,10,10,14,8,17,0.00,8,,49
2013-6-5,31,28,25,22,19,17,0,0,0,29.91,29.89,29.87,10,10,10,13,7,22,0.00,8,,101
2013-6-6,32,30,28,25,22,19,0,0,0,29.95,29.91,29.88,10,10,10,10,6,13,0.00,8,,89
2013-6-7,36,32,28,31,27,23,0,0,0,29.99,29.97,29.95,10,10,9,15,11,17,T,8,Rain-Snow,89
2013-6-8,40,36,32,37,33,29,0,0,0,30.03,30.00,29.94,10,7,0,16,11,21,0.06,8,Fog-Rain,144
2013-6-9,39,36,33,37,34,30,0,0,0,30.04,29.94,29.88,10,6,0,15,9,18,0.14,8,Fog-Rain-Snow,243
2013-6-10,46,38,30,38,31,27,0,0,0,30.17,30.12,30.04,10,3,0,15,10,20,0.00,8,Fog,248
2013-6-11,45,42,39,39,35,32,0,0,0,30.17,30.16,30.14,10,10,10,21,14,26,0.00,3,,236
2013-6-12,51,44,36,40,35,31,0,0,0,30.17,30.15,30.13,10,10,10,15,10,17,0.00,1,,247
2013-6-13,66,51,36,51,40,33,0,0,0,30.14,30.08,29.95,10,7,0,21,10,24,T,3,Fog-Thunderstorm,224
2013-6-14,48,41,34,40,34,30,0,0,0,30.12,30.05,29.98,10,8,2,16,7,20,0.00,3,,284
2013-6-15,56,46,36,52,41,31,0,0,0,30.12,30.08,30.03,10,4,0,13,7,17,0.18,8,Fog-Rain,222
2013-6-16,40,37,34,39,35,30,0,0,0,30.44,30.28,30.04,10,2,0,20,9,26,T,7,Fog-Rain,299
2013-6-17,55,45,35,43,37,33,0,0,0,30.43,30.41,30.34,10,6,0,14,7,15,0.00,6,Fog,98
2013-6-18,53,45,37,41,37,31,0,0,0,30.33,30.23,30.12,10,10,10,14,11,17,0.00,3,,86
2013-6-19,50,44,38,36,34,31,0,0,0,30.12,30.01,29.89,10,10,10,21,14,23,0.00,1,,85
2013-6-20,62,51,39,46,37,30,83,0,60,29.89,29.78,29.72,10,10,10,22,14,26,0.00,1,,107
2013-6-21,46,41,36,38,36,32,86,0,73,29.86,29.83,29.78,10,10,10,18,11,23,0.00,4,,254
2013-6-22,37,34,31,32,31,28,93,0,75,29.86,29.82,29.78,10,3,0,15,10,18,0.04,8,Fog-Rain,21
2013-6-23,36,35,33,34,32,30,100,0,87,29.94,29.86,29.78,10,4,0,14,9,16,0.01,8,Fog-Rain,5
2013-6-24,38,36,33,32,30,29,93,0,76,30.14,30.03,29.94,10,4,0,22,15,26,T,8,Fog,26
2013-6-25,37,32,27,32,30,28,93,0,81,30.14,30.04,29.91,10,5,0,23,18,29,0.01,8,Fog-Snow,85
2013-6-26,58,45,31,44,33,28,92,80,64,29.91,29.83,29.74,10,6,0,15,8,18,T,5,Fog,125
2013-6-27,60,50,40,53,43,34,0,0,0,29.88,29.77,29.73,10,8,0,17,8,22,0.09,6,Fog-Rain,223
2013-6-28,52,46,39,45,40,35,0,0,0,29.93,29.89,29.87,10,8,2,20,12,23,0.04,7,Rain,211
2013-6-29,40,37,33,34,32,30,0,0,0,30.04,29.99,29.94,10,9,3,17,11,22,T,7,Rain,256
2013-6-30,40,37,34,37,34,30,0,0,0,29.98,29.77,29.61,10,10,9,29,20,37,0.07,8,Rain,87